Detroit Lakes, MN

7:31 AM CDT on September 22, 2017 (GMT -0500)
Detroit Lakes

Weather History for KDTL - June, 2013

Change the Weather History Date:

Sunday, June 9, 2013

  Actual Average Record
Temperature  
Mean Temperature 58 °F -  
Max Temperature 60 °F 75 °F 92 °F (1976)
Min Temperature 55 °F 47 °F 30 °F (1989)
Degree Days  
Heating Degree Days 8    
Growing Degree Days 8 (Base 50)    
Moisture  
Dew Point 53 °F    
Average Humidity 88    
Maximum Humidity 94    
Minimum Humidity 68    
Precipitation  
Precipitation 0.30 in - - ()
Sea Level Pressure  
Sea Level Pressure 29.87 in    
Wind  
Wind Speed 6 mph (ESE)    
Max Wind Speed 18 mph    
Max Gust Speed 23 mph    
Visibility 8 miles    
Events Rain    
Averages and records for this station are not official NWS values.
T = Trace of Precipitation, MM = Missing Value Source: NWS Daily Summary

Daily Weather History Graph

Daily Weather History Graph

Search for Another Location

Airport or City:

Trip Planner

Search our weather history database for the weather conditions in past years. The results will help you decide how hot, cold, wet, or windy it might be!

Date:

Astronomy

Jun. 09, 2013 Rise Set
Actual Time 5:29 AM CDT 9:16 PM CDT
Civil Twilight 4:50 AM CDT 9:55 PM CDT
Nautical Twilight 3:57 AM CDT 10:49 PM CDT
Astronomical Twilight 2:41 AM CDT 12:05 AM CDT
Moon 6:31 AM CDT (6/9) 9:59 PM CDT (6/9)
Length of Visible Light 17h 05m
Length of Day
15h 47m
New Moon, 1% of the Moon is Illuminated
Jun 9
New Moon
Jun 16
First Quarter
Jun 23
Full
Jun 29
Last Quarter
Jul 8
New

Hourly Weather History & Observations

Time (CDT) Temp. Dew Point Humidity Pressure Visibility Wind Dir Wind Speed Gust Speed Precip Events Conditions
12:16 AM 60.8 °F 50.0 °F 68% 29.90 in 10.0 mi ESE 5.8 mph - N/A   Clear
12:35 AM 60.8 °F 50.0 °F 68% 29.90 in 10.0 mi ESE 6.9 mph - N/A   Clear
12:55 AM 60.8 °F 51.8 °F 72% 29.90 in 10.0 mi ESE 6.9 mph - N/A   Scattered Clouds
1:16 AM 60.8 °F 51.8 °F 72% 29.90 in 10.0 mi ESE 6.9 mph - N/A   Clear
1:35 AM 60.8 °F 51.8 °F 72% 29.89 in 10.0 mi ESE 6.9 mph - N/A   Clear
1:55 AM 60.8 °F 51.8 °F 72% 29.89 in 10.0 mi ESE 8.1 mph - N/A   Clear
2:16 AM 59.0 °F 51.8 °F 77% 29.89 in 10.0 mi ESE 5.8 mph - N/A   Clear
2:35 AM 59.0 °F 51.8 °F 77% 29.88 in 10.0 mi ESE 6.9 mph - N/A   Clear
2:55 AM 59.0 °F 51.8 °F 77% 29.88 in 10.0 mi ESE 6.9 mph - N/A   Clear
3:16 AM 59.0 °F 51.8 °F 77% 29.88 in 10.0 mi ESE 6.9 mph - N/A   Scattered Clouds
3:36 AM 59.0 °F 51.8 °F 77% 29.88 in 10.0 mi ESE 6.9 mph - N/A   Scattered Clouds
3:55 AM 59.0 °F 51.8 °F 77% 29.88 in 10.0 mi ESE 5.8 mph - N/A   Scattered Clouds
4:16 AM 59.0 °F 53.6 °F 82% 29.88 in 10.0 mi ESE 5.8 mph - N/A   Scattered Clouds
4:36 AM 59.0 °F 53.6 °F 82% 29.88 in 10.0 mi SE 6.9 mph - N/A   Mostly Cloudy
4:55 AM 59.0 °F 53.6 °F 82% 29.88 in 10.0 mi ESE 6.9 mph - N/A   Scattered Clouds
5:16 AM 59.0 °F 53.6 °F 82% 29.87 in 10.0 mi ESE 5.8 mph - N/A   Clear
5:36 AM 59.0 °F 53.6 °F 82% 29.87 in 10.0 mi ESE 6.9 mph - N/A   Clear
5:55 AM 59.0 °F 53.6 °F 82% 29.87 in 10.0 mi ESE 8.1 mph - N/A   Clear
6:16 AM 59.0 °F 53.6 °F 82% 29.87 in 10.0 mi ESE 8.1 mph - N/A Rain Light Rain
6:36 AM 57.2 °F 53.6 °F 88% 29.87 in 10.0 mi ESE 6.9 mph - N/A Rain Rain
6:55 AM 55.4 °F 53.6 °F 94% 29.87 in 10.0 mi ESE 5.8 mph - N/A   Drizzle
7:16 AM 55.4 °F 53.6 °F 94% 29.87 in 10.0 mi East 5.8 mph - N/A Rain Rain
7:36 AM 55.4 °F 53.6 °F 94% 29.87 in 7.0 mi East 5.8 mph - 0.01 in Rain Light Rain
7:55 AM 55.4 °F 53.6 °F 94% 29.87 in 7.0 mi East 8.1 mph - 0.02 in Rain Light Rain
8:16 AM 55.4 °F 53.6 °F 94% 29.87 in 5.0 mi East 5.8 mph - 0.01 in Rain Light Rain
8:36 AM 55.4 °F 53.6 °F 94% 29.87 in 5.0 mi East 6.9 mph - 0.04 in Rain Rain
8:55 AM 55.4 °F 53.6 °F 94% 29.88 in 5.0 mi East 4.6 mph - 0.07 in Rain Rain
9:15 AM 55.4 °F 53.6 °F 94% 29.88 in 7.0 mi East 5.8 mph - 0.03 in Rain Light Rain
9:35 AM 55.4 °F 53.6 °F 94% 29.88 in 5.0 mi East 6.9 mph - 0.05 in Rain Light Rain
9:55 AM 55.4 °F 53.6 °F 94% 29.88 in 5.0 mi East 5.8 mph - 0.07 in Rain Rain
10:16 AM 55.4 °F 53.6 °F 94% 29.88 in 5.0 mi ESE 5.8 mph - 0.02 in Rain Light Rain
10:35 AM 55.4 °F 53.6 °F 94% 29.88 in 7.0 mi East 8.1 mph - 0.03 in Rain Light Rain
10:55 AM 55.4 °F 53.6 °F 94% 29.88 in 7.0 mi East 6.9 mph - 0.05 in Rain Rain
11:16 AM 55.4 °F 53.6 °F 94% 29.89 in 7.0 mi East 8.1 mph - 0.03 in Rain Light Rain
11:35 AM 55.4 °F 53.6 °F 94% 29.89 in 10.0 mi East 8.1 mph - 0.04 in Rain Light Rain
11:55 AM 55.4 °F 53.6 °F 94% 29.89 in 10.0 mi East 6.9 mph - 0.05 in Rain Light Rain
12:16 PM 57.2 °F 55.4 °F 94% 29.89 in 10.0 mi East 10.4 mph - N/A Rain Rain
12:35 PM 57.2 °F 55.4 °F 94% 29.89 in 7.0 mi East 9.2 mph - 0.01 in Rain Light Rain
12:55 PM 57.2 °F 55.4 °F 94% 29.88 in 10.0 mi East 6.9 mph 17.3 mph 0.02 in Rain Light Rain
1:16 PM 57.2 °F 53.6 °F 88% 29.88 in 10.0 mi East 11.5 mph 17.3 mph 0.01 in Rain Light Rain
1:35 PM 59.0 °F 55.4 °F 88% 29.87 in 10.0 mi East 13.8 mph 18.4 mph 0.02 in   Mostly Cloudy
1:55 PM 59.0 °F 55.4 °F 88% 29.86 in 10.0 mi East 12.7 mph 18.4 mph 0.02 in   Mostly Cloudy
2:16 PM 60.8 °F 53.6 °F 77% 29.86 in 10.0 mi East 18.4 mph 21.9 mph N/A   Mostly Cloudy
2:35 PM 59.0 °F 53.6 °F 82% 29.86 in 10.0 mi East 10.4 mph 23.0 mph N/A   Overcast
2:55 PM 59.0 °F 53.6 °F 82% 29.86 in 10.0 mi East 11.5 mph 18.4 mph N/A   Overcast
3:16 PM 59.0 °F 53.6 °F 82% 29.87 in 10.0 mi ESE 5.8 mph - N/A   Mostly Cloudy
3:35 PM 57.2 °F 53.6 °F 88% 29.87 in 7.0 mi East 8.1 mph - N/A   Mostly Cloudy
3:55 PM 57.2 °F 53.6 °F 88% 29.87 in 7.0 mi East 6.9 mph - N/A   Mostly Cloudy
4:16 PM 55.4 °F 53.6 °F 94% 29.87 in 3.0 mi East 4.6 mph - N/A   Overcast
4:35 PM 55.4 °F 53.6 °F 94% 29.87 in 4.0 mi ESE 5.8 mph - N/A   Light Drizzle
4:55 PM 55.4 °F 53.6 °F 94% 29.86 in 2.0 mi East 8.1 mph - N/A   Drizzle
5:16 PM 55.4 °F 53.6 °F 94% 29.86 in 3.0 mi East 4.6 mph - N/A   Light Drizzle
5:35 PM 55.4 °F 53.6 °F 94% 29.86 in 2.0 mi East 8.1 mph - N/A Rain Light Rain
5:55 PM 55.4 °F 53.6 °F 94% 29.86 in 4.0 mi East 5.8 mph - N/A   Overcast
6:16 PM 55.4 °F 53.6 °F 94% 29.86 in 10.0 mi ESE 5.8 mph - N/A   Mostly Cloudy
6:35 PM 55.4 °F 53.6 °F 94% 29.86 in 10.0 mi ESE 5.8 mph - N/A   Mostly Cloudy
6:55 PM 55.4 °F 53.6 °F 94% 29.86 in 10.0 mi ESE 4.6 mph - N/A   Overcast
7:16 PM 55.4 °F 53.6 °F 94% 29.86 in 10.0 mi East 4.6 mph - N/A   Overcast
7:36 PM 55.4 °F 53.6 °F 94% 29.86 in 10.0 mi ENE 3.5 mph - N/A   Overcast
7:55 PM 55.4 °F 53.6 °F 94% 29.87 in 4.0 mi Calm Calm - N/A   Overcast
8:15 PM 55.4 °F 53.6 °F 94% 29.86 in 2.5 mi East 3.5 mph - N/A   Overcast
8:36 PM 55.4 °F 53.6 °F 94% 29.86 in 7.0 mi East 3.5 mph - N/A   Overcast
8:55 PM 55.4 °F 53.6 °F 94% 29.86 in 10.0 mi East 3.5 mph - N/A   Mostly Cloudy
9:15 PM 55.4 °F 53.6 °F 94% 29.86 in 10.0 mi Calm Calm - N/A   Overcast
9:36 PM 55.4 °F 53.6 °F 94% 29.86 in 10.0 mi Calm Calm - N/A   Overcast
9:55 PM 55.4 °F 53.6 °F 94% 29.87 in 7.0 mi East 3.5 mph - N/A   Overcast
10:15 PM 55.4 °F 53.6 °F 94% 29.87 in 7.0 mi Calm Calm - N/A   Overcast
10:35 PM 55.4 °F 53.6 °F 94% 29.87 in 10.0 mi Calm Calm - N/A   Overcast
10:55 PM 55.4 °F 53.6 °F 94% 29.87 in 10.0 mi Calm Calm - N/A   Overcast
11:16 PM 55.4 °F 53.6 °F 94% 29.87 in 10.0 mi Calm Calm - N/A   Overcast
11:36 PM 55.4 °F 53.6 °F 94% 29.87 in 10.0 mi Calm Calm - N/A   Overcast
11:55 PM 55.4 °F 53.6 °F 94% 29.87 in 10.0 mi Calm Calm - N/A   Overcast